Gold Country Challenge - Loft Flight

Station: Loft Fly - T Race

Distance: 1 Miles    

Release: 20-Oct-2021 08:15

Weather Release: Overcast/Scat Showers    Arrival: Overcast

Wind at Release:     Wind at Arrival:

Temp at Release: 53°    Temp at Arrival: °

Lofts: 83

Birds: 183

Clocked: 183

Rain/unsettled weather 6-7 days straight. Hawk hit a bird, 60+ still flying
Drops Pos Breeder Pigeon Name Color Sex Ent Arrival Speed To Win Elg PdChampR3-10to1R4-10to1R4WTA
1 Christopher Loft - UT 0046-AU21-GS BBWF H 1 09:18:45.10 27.607 00:00:00 Yes
2 Fleet Washington - DC 2152-AU21-FLTW BB H 1 09:18:46.60 27.596 00:00:02 Yes
3 Applis Loft - MO 10012-AU21-AA BB H 1 09:19:55.10 27.111 00:01:10 Yes
4 SuperStar Loft - TX 0057-AU21-DUBJ 2353 x 26 BB H 1 09:21:11.40 26.590 00:02:26 Yes
5 Endo/Wong/Kojiro - HI 0106-AU21-FIAH BB H 1 09:21:13.40 26.577 00:02:28 Yes
6 Bieche Lofts - CA 1083-AU21-BIE MLY H 1 09:21:21.30 26.524 00:02:36 Yes
7 Fleet Washington - DC 2138-AU21-FLTW BBSP H 2 09:21:22.70 26.515 00:02:38 Yes
8 RC Manaois Family Loft - NV 10753-AU21-ARPU HELLS ANGEL BB H 1 09:21:25.60 26.495 00:02:41 Yes
9 E & K Loft - TX 0304-AU21-EK BLK H 1 09:21:31.80 26.454 00:02:47 Yes
10 RC Manaois Family Loft - NV 46274-AU21-ARPU VOLTA BC H 2 09:21:40.40 26.397 00:02:55 Yes
11 TRP Loft - CA 10806-AU21-MAN N2 274 BC H 1 09:21:41.60 26.389 00:02:57 Lost
12 FLY EAGLE LOFT - NC 98060-AU21-ARPU BC H 1 09:21:43.40 26.378 00:02:58 Lost
13 Silicon Valley Syndicate - CA 21052-AU21-SVS DCSP H 1 09:21:43.80 26.375 00:02:59 Yes
14 C and W Loft - CA 36426-AU21-JEDD BB H 1 09:21:45.60 26.363 00:03:00 Yes
15 Gomez Loft - CA 4107-AU21-CHP BB H 1 09:21:46.60 26.357 00:03:01 Yes
16 Whiskey Hollow Loft - TX 0020-AU21-WACO "Bugsy" BC H 1 09:22:02.00 26.256 00:03:17 Yes
17 Sierra Ranch - CA 1067-AU21-AUB Arizona BBWF H 1 09:22:14.80 26.172 00:03:30 Lost
18 Banat Loft - IL 2152-AU21-AA BC H 1 09:22:21.80 26.127 00:03:37 Yes
19 R & D Racing 2 - ON 19245-AU21-ARPU SMK H 1 09:22:34.50 26.045 00:03:49 Lost
20 Gomez Loft - CA 4174-AU21-CHP BC H 2 09:22:35.80 26.037 00:03:51 Yes
21 Rab Loft - CA 11513-AU21-MAN BC H 1 09:22:39.20 26.015 00:03:54 Yes
22 Okie Shuffle Loft - WI 0424-AU21-VITA BBSP H 1 09:22:46.20 25.970 00:04:01 Yes
23 Baptista - IL 0196-AU21-BAPT AMAZING GRACE BB H 1 09:22:59.70 25.884 00:04:15 Yes
24 Bieche Lofts - CA 1037-AU21-BIE BC H 2 09:23:02.10 25.869 00:04:17 Missing
25 House Of Paine - CA 1103-AU21-HOP DBJ10xCVR5336 BB H 1 09:23:15.40 25.785 00:04:30 Yes
26 Roger Salvi - CA 0104-AU21-RBPC BB H 1 09:23:32.20 25.680 00:04:47 Yes
27 Thai Tommy Rusty - NV 20224-AU21-JEDD BB H 1 09:23:36.10 25.655 00:04:51 Yes
28 Sierra Ranch - CA 1016-AU21-AUB Nebraskan BB H 2 09:23:42.80 25.614 00:04:58 Lost
29 Cloux Loft - CO 35001-AU21-AA BB H 1 09:23:58.10 25.519 00:05:13 Yes
30 Guinto-Hedderson - CA 6205-AU21-FSC BB H 1 09:24:13.90 25.422 00:05:29 Yes
31 Fleet Washington - DC 2124-AU21-FLTW BCWF H 3 09:24:14.20 25.420 00:05:29 Yes
32 Erwin Racing Loft - CA 7027-AU21-BON BB H 1 09:24:17.10 25.402 00:05:32 Yes
33 All Glory To God - NM 0211-AU21-JEDD MLY H 1 09:24:19.10 25.390 00:05:34 Yes
34 John V Partridge - CA 0252-AU21-PASO Voyager Star BB H 1 09:24:31.50 25.315 00:05:46 Yes
35 Racing Pigeon Mall - WA 0107-AU21-RPM Jos BBSP H 1 09:24:40.10 25.263 00:05:55 Yes
36 Racing Pigeon Mall - WA 0104-AU21-RPM Jules BBWF H 2 09:24:45.40 25.231 00:06:00 Lost
37 O C F Syndicate - CA 1002-AU21-TOP BB~ H 1 09:25:14.80 25.055 00:06:30 Yes
38 Emmalyn & Carelyn Loft - CA 0714-AU21-CEYX ~ CEYX 714 ~ BCWF H 1 09:25:24.60 24.996 00:06:40 Yes
39 Sierra Ranch - CA 1017-AU21-AUB The Bumper BB H 3 09:25:48.90 24.853 00:07:04 Yes
40 R & D Racing 2 - ON 1833-AU21-AA BB H 2 09:25:56.20 24.811 00:07:11 Yes
41 A P C Loft - TX 0049-AU21-APC BB H 1 09:26:08.30 24.741 00:07:23 Yes
42 Sierra Ranch - CA 1062-AU21-AUB Gold Dust BC H 4 09:26:53.40 24.482 00:08:08 Yes
43 Sierra Ranch - CA 1034-AU21-AUB Nucash BB H 5 09:26:54.70 24.474 00:08:10 Lost
44 Sparks Trio Syn - NV 0322-AU21-RENO Rosa BBWF H 1 09:27:08.70 24.395 00:08:24 Yes
45 Cloux Loft - CO 21962-AU21-FH BBSP H 2 09:27:11.20 24.381 00:08:26 Yes
46 Bieche Lofts - CA 1011-AU21-BIE BB H 3 09:27:22.20 24.319 00:08:37 Yes
47 BIRDHIGH RANCH - CA 9203-AU21-JEDD GRZS H 1 09:28:13.90 24.033 00:09:29 Yes
48 Denis Eastwood - CA 23634-AU21-JEDD BC H 1 09:28:41.40 23.884 00:09:56 Yes
49 Salvicon - CA 0106-AU21-RBPC BB H 1 09:30:13.20 23.398 00:11:28 Lost
50 BIRDHIGH RANCH - CA 9206-AU21-JEDD BB H 2 09:30:25.60 23.334 00:11:40 Yes
51 A P C Loft - TX 0296-AU21-APC BB H 2 09:30:27.40 23.325 00:11:42 Yes
52 Ponce & H. Padilla - CA 1640-AU21-MTZ BB H 1 09:30:48.40 23.217 00:12:03 Yes
53 John V Partridge - CA 0302-AU21-PASO Kissin Kousin - Star BB H 2 09:30:50.70 23.205 00:12:06 Yes
54 Rachel Olivieri - CA 0212-AU21-LAKE BB H 1 09:30:53.10 23.193 00:12:08 Yes
55 Genesis Syndicate Loft - AZ 0203-AU21-GEN BB H 1 09:31:03.00 23.143 00:12:18 Lost
56 Erwin Racing Loft - CA 7025-AU21-BON GRIZ H 2 09:31:14.70 23.083 00:12:30 Yes
57 Tucson Triple Challenge - AZ 11996-AU21-JEDD BB H 1 09:31:26.10 23.026 00:12:41 Yes
58 Emmalyn & Carelyn Loft - CA 0715-AU21-CEYX ~ CEYX 715 ~ BBWF H 2 09:32:16.90 22.774 00:13:32 Yes
59 Prout's Loft - CA 0471-AU21-PROU Stick/ Sion BB H 1 09:32:22.60 22.746 00:13:37 Lost
60 Ponce & H. Padilla - CA 0013-AU21-PONC RC H 2 09:32:25.10 22.734 00:13:40 Yes
61 Skylinerpl.Com - UT 0662-AU21-UVI Troy/88 BB~ H 1 09:32:26.30 22.728 00:13:41 Yes
62 Nanez Family Loft - WI 1023-AU21-NFL GRIZ H 1 09:32:30.50 22.707 00:13:45 Yes
63 WŸŁØft - CA 25223-AU21-AA Spock 41118/002 DC C 1 09:32:43.70 22.643 00:13:59 Yes
64 Sparks Trio Syn - NV 0370-AU21-RENO Palma BB H 2 09:32:52.20 22.602 00:14:07 Lost
65 Puebla Vista - CA 1005-US21-NPA Chan Grover WHT C 1 09:32:53.00 22.598 00:14:08 Lost
66 Scm Lofts - CA 16721-AU21-JEDD BC~ H 1 09:33:08.20 22.525 00:14:23 Yes
67 Cloux Loft - CO 35100-AU21-AA BC H 3 09:33:16.70 22.484 00:14:32 Lost
68 Duane Gragg - CA 0308-AU21-AUB BC H 1 09:33:19.40 22.471 00:14:34 Lost
69 Genesis Syndicate Loft - AZ 0205-AU21-GENS BC H 2 09:33:48.70 22.332 00:15:04 Yes
70 Salvicon - CA 0102-AU21-RBPC BB H 2 09:33:49.20 22.329 00:15:04 Yes
71 Al Shulman - CA 2296-AU21-WSJ BBSP H 1 09:34:18.10 22.194 00:15:33 Yes
72 R & D Racing 2 - ON 1822-AU21-AA BCSP H 3 09:34:28.00 22.148 00:15:43 Yes
73 R & D Racing 2 - ON 7517-CU21-CRPU BBWF H 4 09:34:29.40 22.141 00:15:44 Yes
74 Scm Lofts - CA 16727-AU21-JEDD BB H 2 09:34:29.70 22.140 00:15:45 Lost
75 R & M Lofts - TX 0302-AU21-WACO BB H 1 09:34:31.00 22.134 00:15:46 Yes
76 O C F Syndicate - CA 1023-AU21-TOP BB C 2 09:34:45.70 22.066 00:16:01 Lost
77 A P C Loft - TX 0052-AU21-APC BB H 3 09:35:02.50 21.989 00:16:17 Yes
78 G & J Lofts - CA 0004-AU21-GJ Justice BB H 1 09:35:03.80 21.983 00:16:19 Yes
79 Kereru Whare - CA 4333-AU21-FSC MLY H 1 09:35:04.20 21.981 00:16:19 Yes
80 Jacks Loft - NV 16719-AU21-JEDD BC H 1 09:35:28.60 21.870 00:16:43 Yes
81 Sextons Loft - IA 0217-AU21-DMI GENERAL PATTON BB C 1 09:36:00.90 21.724 00:17:16 Yes
82 Aceves- C B C - CA 2744-AU21-AA BB H 1 09:37:13.60 21.404 00:18:29 Lost
83 Okie Shuffle Loft - WI 0429-AU21-VITA BB H 2 09:38:09.30 21.165 00:19:24 Lost
84 WŸŁØft - CA 25218-AU21-AA Kirk 18532/34192 BB C 2 09:38:12.70 21.151 00:19:28 Yes
85 Denis Eastwood - CA 23645-AU21-JEDD BCSP H 2 09:38:55.50 20.971 00:20:10 Lost
86 A P C Loft - TX 0014-AU21-APC BC H 4 09:39:04.70 20.933 00:20:20 Yes
87 FLY EAGLE LOFT - NC 98080-AU21-ARPU BB H 2 09:39:08.20 20.918 00:20:23 Yes
88 Peters - GA 0204-IF21-CGO 204 MONSTER KILLER-2 BB H 1 09:39:14.30 20.893 00:20:29 Yes
89 Singh Family Loft - CA 2128-AU21-SING BB H 1 09:39:29.10 20.832 00:20:44 Lost
90 Kfly Racing Pigeon Loft - ID 2139-AU21-KFLY KonRuby X Miss Fletcher BC H 1 09:39:54.90 20.727 00:21:10 Yes
91 Denis Eastwood - CA 23639-AU21-JEDD BB H 3 09:40:03.70 20.691 00:21:19 Yes
92 All Glory To God - NM 0212-AU21-JEDD BC H 2 09:40:09.80 20.666 00:21:25 Yes
93 Omelio Perez - NM 14730-AU21-FOYS BB H 1 09:40:14.80 20.646 00:21:30 Yes
94 Watson & Williams - NV 20230-AU21-JEDD BB H 1 09:40:31.00 20.581 00:21:46 Yes
95 Denis Eastwood - CA 23643-AU21-JEDD BB H 4 09:40:41.80 20.538 00:21:57 Yes
96 Denis Eastwood - CA 23609-AU21-JEDD WHT H 5 09:41:02.40 20.456 00:22:17 Yes
97 Duane Gragg - CA 0307-AU21-AUB BC H 2 09:42:25.00 20.133 00:23:40 Yes
98 Denis Eastwood - CA 23640-AU21-JEDD BBSP H 6 09:42:45.70 20.054 00:24:01 Yes
99 Bieche Lofts - CA 1197-AU21-BIE MLY H 4 09:42:49.50 20.040 00:24:04 Yes
100 Guinto-Hedderson - CA 7003-AU21-FSC BC H 2 09:43:24.80 19.906 00:24:40 Yes

There are 183 bird records

Note: These Race Results are unofficial and subject to change until verified by the Race Committee and declared final.